www.pogodaiklimat.ru

Погода и климат >> Архив погоды >> Россия >> Камчатский край >> Семячик


АРХИВ ПОГОДЫ в Семячике

Время (UTC), дата Ветер
(напр.,м/с)
 
Видим.   Явления Облачность Т
(С)
Тd
(С)
f
(%)
Тe
(С)
Тes
(С)
Комфортность P
(гПа)
Po
(гПа)
Тmin
(С)
Tmax
(С)
R
(мм)
R24
(мм)
S
(см)
06 12.09 С 3
{15}
50 км ясно +16.6 -0.8 31 +16 +17 1009.2 1006.0
09 12.09 З 4 20 км ясно +9.4 +2.0 60 +7 +7 1010.9 1007.6 +17.6
12 12.09 СЗ 4 20 км ясно +10.4 +0.5 50 +8 +8 1011.0 1007.7
15 12.09 штиль 0 20 км ясно +7.7 +2.5 70 +7 +7 1011.5 1008.2
18 12.09 СЗ 5 20 км 9/0
[Ac lent Ci fib]
+9.3 -0.2 51 +6 +6 1011.3 1008.0
21 12.09 СЗ 3 50 км 10/0
[Ac lent Ci fib]
+10.3 +0.9 52 +9 +9 1012.1 1008.8 +6.5
00 13.09 С 2 50 км 10/0
[Ac lent Ci fib]
+11.5 +6.8 73 +10 +15 1012.1 1008.8
03 13.09 С 3 50 км 8/0
[Ci fib]
+13.8 +7.8 67 +13 +18 1011.3 1008.1
06 13.09 СВ 3 50 км 8/1 600 м
[Cu hum Ac lent Ci fib]
+13.6 +10.0 79 +12 +13 1011.0 1007.8
09 13.09 С 3 20 км 8/3 300 м
[St Ac lent]
+9.7 +8.8 94 +7 +7 1011.8 1008.5 +16.6
12 13.09 СЗ 4 20 км 3/0
[Ac lent]
+9.1 +6.7 85 +6 +6 1011.4 1008.1
15 13.09 СЗ 1 20 км 1/0
[Ac lent]
+5.2 +2.9 85 +4 +4 1010.0 1006.7
18 13.09 С 3 20 км 8/8 600 м
[Sc]
+5.5 +3.2 85 +2 +2 1009.8 1006.5
21 13.09 СВ 2 50 км 4/0
[Ac trans]
+10.8 +4.9 67 +10 +11 1010.5 1007.2 +5.0
00 14.09 В 1 50 км ясно +13.3 +6.5 63 +14 +22 1010.6 1007.4
03 14.09 Ю 4 50 км ясно +12.4 +7.3 71 +11 +15 1009.7 1006.4
06 14.09 Ю 6 50 км ясно +11.4 +7.5 77 +8 +9 1010.3 1007.0
09 14.09 З 3 20 км ясно +7.3 +5.8 90 +4 +4 1011.4 1008.1 +13.7
12 14.09 З 2 50 км ясно +6.0 +4.9 93 +3 +3 1012.0 1008.7
15 14.09 З 1 20 км ясно +5.5 +4.4 93 +4 +4 1012.3 1009.0
18 14.09 З 2 20 км 9/0
[Ac lent Cs]
+5.9 +4.8 93 +3 +3 1012.5 1009.2
21 14.09 СЗ 1 50 км 10/3 600 м
[Sc Ac As Cs]
+8.5 +7.3 92 +8 +8 1012.8 1009.5 +5.2
00 15.09 В 2 50 км 10/3 600 м
[Sc Ac trans Ci fib]
+11.7 +7.6 76 +11 +13 1012.8 1009.6
03 15.09 В 2 50 км 10/4 600 м
[Sc Ac trans Ci fib]
+11.4 +8.3 81 +10 +12 1011.7 1008.5
06 15.09 Ю 2 10 км слаб. ливневой дождь 10/10 300 м
[Cb cap]
+10.3 +8.6 89 +9 +9 1012.2 1008.9
09 15.09 ЮЗ 1 20 км {ливн. осадки} 10/8 600 м
[Sc diur, vesp Ci fib]
+9.6 +8.5 93 +9 +9 1013.4 1010.1 +13.5 1
12 15.09 З 2 20 км {ливн. осадки} ясно +6.8 +6.0 95 +4 +4 1014.5 1011.1
15 15.09 З 3 20 км ясно +7.3 +5.8 90 +4 +4 1014.7 1011.4
18 15.09 СЗ 6
{11}
20 км ясно +7.1 +4.6 84 +3 +3 1015.9 1012.6
21 15.09 Ю 1 50 км ясно +8.7 +6.3 85 +8 +10 1017.5 1014.1 +5.1
00 16.09 ЮВ 2 50 км ясно +13.1 +8.3 73 +12 +19 1017.6 1014.3
03 16.09 Ю 6 50 км ясно +14.1 +6.8 61 +12 +15 1017.0 1013.7
06 16.09 Ю 4 50 км ясно +12.9 +7.8 71 +11 +12 1017.6 1014.4
09 16.09 С 1 20 км ясно +9.9 +4.9 71 +10 +10 1019.2 1015.9 +14.1
12 16.09 СЗ 2 20 км ясно +8.0 +5.2 82 +6 +6 1020.5 1017.2
15 16.09 С 3 20 км ясно +8.0 +6.4 90 +5 +5 1019.6 1016.2
18 16.09 СЗ 1 20 км 9/0
[Ci]
+7.0 +5.5 90 +6 +6 1018.8 1015.4
21 16.09 Ю 1 20 км 10/6 300 м
[St Ac lent Ci fib]
+7.7 +6.5 92 +7 +7 1018.7 1015.4 +5.6
00 17.09 В 2 20 км 10/10 300 м
[St]
+11.3 +8.5 83 +10 +10 1017.3 1014.0
03 17.09 Ю 2 50 км 10/6 600 м
[Sc Ac und Ci fib]
+12.3 +7.7 73 +11 +13 1015.2 1011.9
06 17.09 ЮВ 2 50 км 10/10 600 м
[Sc]
+10.4 +7.2 81 +9 +9 1013.3 1010.0
09 17.09 ЮВ 3 20 км 10/10 600 м
[Sc]
+10.1 +7.0 81 +8 +8 1012.2 1008.9 +12.8
12 17.09 С 2 20 км 10/10 600 м
[Sc]
+9.2 +6.8 85 +7 +7 1010.1 1006.8
15 17.09 В 6 20 км 10/10 600 м
[Sc]
+10.1 +6.6 79 +7 +7 1008.3 1005.1
18 17.09 СВ 7 20 км 10/10 600 м
[Sc]
+9.6 +6.8 83 +6 +6 1006.6 1003.3
21 17.09 С 6 20 км 10/10 600 м
[Sc]
+9.1 +4.9 75 +5 +5 1006.7 1003.5 +8.7
00 18.09 СВ 8
{11}
50 км 10/10 600 м
[Sc]
+11.1 +7.0 76 +8 +8 1007.0 1003.8
03 18.09 В 3
{10}
20 км 10/10 600 м
[Sc]
+11.3 +7.3 76 +10 +10 1006.8 1003.6
06 18.09 В 1 50 км 10/10 600 м
[Sc]
+11.1 +7.6 79 +11 +11 1007.2 1003.9
09 18.09 З 2 50 км 10/10 600 м
[Sc]
+8.9 +7.3 90 +7 +7 1008.6 1005.3 +12.2
12 18.09 З 1 20 км 10/10 600 м
[Sc]
+8.7 +6.8 88 +8 +8 1009.7 1006.4
15 18.09 З 1 20 км 10/10 600 м
[Sc]
+6.6 +5.6 93 +5 +5 1010.1 1006.8
18 18.09 СЗ 1 20 км 10/0
[Cs]
+7.7 +6.3 91 +7 +7 1009.9 1006.6
21 18.09 З 1 20 км 10/0
[Ac As Cs]
+7.7 +6.6 93 +7 +8 1010.7 1007.4 +6.3
00 19.09 Ю 6 50 км 10/0
[Ac As Cs]
+10.7 +7.2 79 +8 +9 1010.6 1007.3
03 19.09 Ю 4 50 км 10/0
[Ac trans Cc]
+12.2 +8.7 79 +10 +13 1009.9 1006.6

 

Местоположение метеостанции Семячик (Камчатский край, Россия): широта 54.12 долгота 159.90 высота над уровнем моря 27 м.

В архиве по умолчанию представлена погода в Семячике за последнюю неделю. Архивные данные за месяц целиком и за предыдущие месяцы, начиная с января 2011 года, Вы можете получить, выбрав интересующий диапазон дат из раскрывающегося списка и нажав кнопку "Ввод!".


*Определитесь, кто Вы:
робот инопланетянин человек

Внимание! Время в таблицах - всемирное. Для получения местного времени необходимо прибавить поправку, которая равна 12 ч.

Смотрите также архив погоды в соседних городах и на ближайших метеорологических станциях:

Погода в Мильково (Камчатский край, Россия) (110 км)
Погода в Пущино (Камчатский край, Россия) (124 км)
Погода в Долиновке (Камчатский край, Россия) (125 км)
Погода в Петропавловск-Камч. 2 (Камчатский край, Россия) (148 км)
Погода в Сосновке (Камчатский край, Россия) (157 км)
Погода в Петропавловском Маяке (Камчатский край, Россия) (159 км)
Погода в Петропавловск-Камчатском (Камчатский край, Россия) (163 км)
Погода в Начиках (Камчатский край, Россия) (183 км)
Погода в Козыревске (Камчатский край, Россия) (215 км)
Погода в Эссо (Камчатский край, Россия) (215 км)

Пояснения к столбцам:

Ветер - указаны скорость ветра в м/с - средняя за 10 мин, порывы в срок и между сроками (в фигурных скобках) и направление, откуда дует ветер: С - северный, СВ - северо-восточный, В - восточный, ЮВ - юго-восточный, Ю - южный, ЮЗ - юго-западный, З - западный, СЗ - северо-западный.
Видимость - горизонтальная дальность видимости в метрах или километрах. При видимости от 1 до 10 км при отсутствии осадков обычно наблюдается дымка, при ухудшении видимости до 1 км и менее - туман. В сухую погоду видимость может ухудшаться дымом, пылью или мглою.
Явления - указаны атмосферные явления, наблюдавшиеся в срок или в последний час перед сроком; фигурными скобками обозначены явления, наблюдавшиеся между сроками (за 1-3 часа до срока); квадратными скобками обозначены град или гололедные отложения с указанием их диаметра в мм.
Облачность - указаны через наклонную черту общая и нижняя облачность в баллах и высота нижней границы облаков в метрах; квадратными скобками обозначены формы облаков: Ci - перистые, Cs - перисто-слоистые, Cc - перисто-кучевые, Ac - высококучевые, As - высокослоистые, Sc - слоисто-кучевые, Ns - слоисто-дождевые, Cu - кучевые, Cb - кучево-дождевые. Подробнее классификацию облаков см. в Атласе облаков (PDF).
T - Температура воздуха - температура, измеренная на высоте 2 м над землей.
Td - Температура точки росы - температура, при понижении до которой содержащийся в воздухе водяной пар достигнет насыщения.
f - Относительная влажность воздуха - влажноcть воздуха, измеренная на высоте 2 м над землей.
Te - Эффективная температура - температура, которую ощущает одетый по сезону человек в тени. Характеристика душности погоды. При расчете учитывается влияние влажности воздуха и скорости ветра на теплоощущения человека.
Tes - Эффективная температура на солнце - температура, которую ощущает человек, с поправкой на солнечный нагрев. Характеристика знойности погоды. Зависит от высоты солнца над горизонтом, облачности и скорости ветра. Ночью, в пасмурную погоду, а также при ветре 12 м/с и более поправка равна нулю.
P - Атмосферное давление - приведенное к уровню моря атмосферное давление.
Po - Атмосферное давление - измеренное на уровне метеостанции атмосферное давление.
Tmin - Минимальная температура - минимум температуры воздуха на высоте 2 м над землей.
Tmax - Максимальная температура - максимум температуры воздуха на высоте 2 м над землей.
R - Количество осадков - Количество выпавших осадков за период времени, мм. При наведении курсора мыши на число - период времени, за который выпало указанное количество осадков.
R24 - Количество осадков - Количество выпавших осадков за 24 часа, мм.
S - Снежный покров - Высота снежного покрова, см. При наведении курсора мыши на число - состояние снежного покрова и степень покрытия местности в баллах.